Time,TemperatureF,DewpointF,PressureIn,WindDirection,WindDirectionDegrees,WindSpeedMPH,WindSpeedGustMPH,Humidity,HourlyPrecipIn,Conditions,Clouds,dailyrainin,SoftwareType,DateUTC
2013-07-13 00:01:00,74.0,72.5,29.83,NNW,338,5.0,10.0,95,0.00,,,0.00,Weather View 32 v70,2013-07-13 04:01:00,
2013-07-13 00:03:00,74.0,72.5,29.83,NNW,338,1.0,10.0,95,0.00,,,0.00,Weather View 32 v70,2013-07-13 04:03:00,
2013-07-13 00:08:00,74.0,72.5,29.83,North,0,1.0,10.0,95,0.00,,,0.00,Weather View 32 v70,2013-07-13 04:08:00,
2013-07-13 00:13:00,74.0,72.5,29.83,North,0,3.0,10.0,95,0.00,,,0.00,Weather View 32 v70,2013-07-13 04:13:00,
2013-07-13 00:18:00,74.0,72.5,29.83,ENE,68,4.0,10.0,95,0.00,,,0.00,Weather View 32 v70,2013-07-13 04:18:00,
2013-07-13 00:23:00,74.0,72.5,29.83,North,0,3.0,9.0,95,0.00,,,0.00,Weather View 32 v70,2013-07-13 04:23:00,
2013-07-13 00:28:00,74.0,72.5,29.83,ENE,68,3.0,10.0,95,0.00,,,0.00,Weather View 32 v70,2013-07-13 04:28:00,
2013-07-13 00:33:00,74.0,72.5,29.82,ENE,68,1.0,10.0,95,0.00,,,0.00,Weather View 32 v70,2013-07-13 04:33:00,
2013-07-13 00:38:00,74.0,72.5,29.82,ENE,68,5.0,10.0,95,0.00,,,0.00,Weather View 32 v70,2013-07-13 04:38:00,
2013-07-13 00:43:00,74.0,72.5,29.83,ENE,68,4.0,10.0,95,0.00,,,0.00,Weather View 32 v70,2013-07-13 04:43:00,
2013-07-13 00:48:00,74.0,72.8,29.83,East,90,1.0,10.0,96,0.00,,,0.00,Weather View 32 v70,2013-07-13 04:48:00,
2013-07-13 00:53:00,74.0,72.8,29.83,ENE,68,3.0,10.0,96,0.00,,,0.00,Weather View 32 v70,2013-07-13 04:53:00,
2013-07-13 00:58:00,74.0,72.8,29.83,North,0,1.0,10.0,96,0.00,,,0.00,Weather View 32 v70,2013-07-13 04:58:00,
2013-07-13 01:03:00,74.0,72.8,29.83,East,90,3.0,10.0,96,0.00,,,0.00,Weather View 32 v70,2013-07-13 05:03:00,
2013-07-13 01:08:00,74.0,72.8,29.83,ENE,68,4.0,10.0,96,0.00,,,0.00,Weather View 32 v70,2013-07-13 05:08:00,
2013-07-13 01:13:00,74.0,72.8,29.83,ENE,68,3.0,10.0,96,0.00,,,0.00,Weather View 32 v70,2013-07-13 05:13:00,
2013-07-13 01:18:00,73.0,72.1,29.83,ENE,68,1.0,10.0,97,0.00,,,0.00,Weather View 32 v70,2013-07-13 05:18:00,
2013-07-13 01:23:00,73.0,72.1,29.84,ENE,68,5.0,10.0,97,0.00,,,0.00,Weather View 32 v70,2013-07-13 05:23:00,
2013-07-13 01:28:00,73.0,72.1,29.84,ENE,68,2.0,10.0,97,0.00,,,0.00,Weather View 32 v70,2013-07-13 05:28:00,
2013-07-13 01:33:00,73.0,72.1,29.84,ENE,68,3.0,10.0,97,0.00,,,0.00,Weather View 32 v70,2013-07-13 05:33:00,
2013-07-13 01:38:00,73.0,72.1,29.84,East,90,0.0,10.0,97,0.00,,,0.00,Weather View 32 v70,2013-07-13 05:38:00,
2013-07-13 01:43:00,73.0,72.1,29.84,ENE,68,0.0,8.0,97,0.00,,,0.00,Weather View 32 v70,2013-07-13 05:43:00,
2013-07-13 01:48:00,73.0,72.1,29.84,North,0,2.0,6.0,97,0.00,,,0.00,Weather View 32 v70,2013-07-13 05:48:00,
2013-07-13 01:53:00,73.0,72.1,29.84,North,0,3.0,6.0,97,0.00,,,0.00,Weather View 32 v70,2013-07-13 05:53:00,
2013-07-13 01:58:00,73.0,72.4,29.84,ENE,68,3.0,8.0,98,0.00,,,0.00,Weather View 32 v70,2013-07-13 05:58:00,
2013-07-13 02:03:00,73.0,72.4,29.85,East,90,0.0,8.0,98,0.00,,,0.00,Weather View 32 v70,2013-07-13 06:03:00,
2013-07-13 02:08:00,73.0,72.4,29.84,North,0,1.0,8.0,98,0.00,,,0.00,Weather View 32 v70,2013-07-13 06:08:00,
2013-07-13 02:13:00,73.0,72.4,29.85,East,90,3.0,8.0,98,0.00,,,0.00,Weather View 32 v70,2013-07-13 06:13:00,
2013-07-13 02:18:00,73.0,72.4,29.85,ENE,68,3.0,8.0,98,0.00,,,0.00,Weather View 32 v70,2013-07-13 06:18:00,
2013-07-13 02:23:00,73.0,72.4,29.84,ENE,68,3.0,8.0,98,0.00,,,0.00,Weather View 32 v70,2013-07-13 06:23:00,
2013-07-13 02:28:00,73.0,72.4,29.84,ENE,68,4.0,13.0,98,0.00,,,0.00,Weather View 32 v70,2013-07-13 06:28:00,
2013-07-13 02:33:00,73.0,72.4,29.84,ENE,68,0.0,13.0,98,0.00,,,0.00,Weather View 32 v70,2013-07-13 06:33:00,
2013-07-13 02:38:00,73.0,72.4,29.84,ENE,68,4.0,13.0,98,0.00,,,0.00,Weather View 32 v70,2013-07-13 06:38:00,
2013-07-13 02:43:00,73.0,72.4,29.84,ENE,68,1.0,13.0,98,0.00,,,0.00,Weather View 32 v70,2013-07-13 06:43:00,
2013-07-13 02:48:00,73.0,72.4,29.85,North,0,4.0,13.0,98,0.00,,,0.00,Weather View 32 v70,2013-07-13 06:48:00,
2013-07-13 02:54:00,73.0,72.4,29.85,ENE,68,0.0,13.0,98,0.00,,,0.00,Weather View 32 v70,2013-07-13 06:54:00,
2013-07-13 02:59:00,73.0,72.4,29.85,ENE,68,3.0,13.0,98,0.00,,,0.00,Weather View 32 v70,2013-07-13 06:59:00,
2013-07-13 03:04:00,73.0,72.4,29.85,East,90,1.0,13.0,98,0.00,,,0.00,Weather View 32 v70,2013-07-13 07:04:00,
2013-07-13 03:09:00,73.0,72.4,29.85,East,90,1.0,13.0,98,0.00,,,0.00,Weather View 32 v70,2013-07-13 07:09:00,
2013-07-13 03:14:00,73.0,72.4,29.85,ENE,68,3.0,13.0,98,0.00,,,0.00,Weather View 32 v70,2013-07-13 07:14:00,
2013-07-13 03:19:00,73.0,72.7,29.85,ENE,68,1.0,13.0,99,0.00,,,0.00,Weather View 32 v70,2013-07-13 07:19:00,
2013-07-13 03:24:00,73.0,72.7,29.85,North,0,2.0,13.0,99,0.00,,,0.00,Weather View 32 v70,2013-07-13 07:24:00,
2013-07-13 03:29:00,73.0,72.7,29.85,ENE,68,1.0,8.0,99,0.00,,,0.00,Weather View 32 v70,2013-07-13 07:29:00,
2013-07-13 03:34:00,73.0,72.7,29.85,ENE,68,6.0,8.0,99,0.00,,,0.00,Weather View 32 v70,2013-07-13 07:34:00,
2013-07-13 03:39:00,73.0,72.7,29.85,ENE,68,6.0,8.0,99,0.00,,,0.00,Weather View 32 v70,2013-07-13 07:39:00,
2013-07-13 03:44:00,73.0,72.7,29.85,ENE,68,1.0,9.0,99,0.00,,,0.00,Weather View 32 v70,2013-07-13 07:44:00,
2013-07-13 03:49:00,73.0,72.7,29.85,North,0,3.0,9.0,99,0.00,,,0.00,Weather View 32 v70,2013-07-13 07:49:00,
2013-07-13 03:54:00,73.0,72.7,29.85,ENE,68,5.0,9.0,99,0.00,,,0.00,Weather View 32 v70,2013-07-13 07:54:00,
2013-07-13 03:59:00,73.0,72.7,29.85,NNW,338,1.0,9.0,99,0.00,,,0.00,Weather View 32 v70,2013-07-13 07:59:00,
2013-07-13 04:04:00,73.0,72.7,29.85,ENE,68,3.0,9.0,99,0.00,,,0.00,Weather View 32 v70,2013-07-13 08:04:00,
2013-07-13 04:09:00,73.0,72.7,29.85,ENE,68,1.0,9.0,99,0.00,,,0.00,Weather View 32 v70,2013-07-13 08:09:00,
2013-07-13 04:14:00,73.0,73.0,29.85,East,90,3.0,9.0,100,0.00,,,0.00,Weather View 32 v70,2013-07-13 08:14:00,
2013-07-13 04:19:00,73.0,72.7,29.85,ENE,68,1.0,9.0,99,0.00,,,0.00,Weather View 32 v70,2013-07-13 08:19:00,
2013-07-13 04:24:00,73.0,72.7,29.85,ENE,68,4.0,9.0,99,0.00,,,0.00,Weather View 32 v70,2013-07-13 08:24:00,
2013-07-13 04:29:00,73.0,73.0,29.85,ENE,68,1.0,9.0,100,0.00,,,0.00,Weather View 32 v70,2013-07-13 08:29:00,
2013-07-13 04:34:00,73.0,73.0,29.85,ENE,68,4.0,9.0,100,0.00,,,0.00,Weather View 32 v70,2013-07-13 08:34:00,
2013-07-13 04:39:00,73.0,73.0,29.85,North,0,3.0,9.0,100,0.00,,,0.00,Weather View 32 v70,2013-07-13 08:39:00,
2013-07-13 04:45:00,73.0,73.0,29.85,ENE,68,3.0,8.0,100,0.00,,,0.00,Weather View 32 v70,2013-07-13 08:45:00,
2013-07-13 04:50:00,73.0,73.0,29.84,ENE,68,2.0,8.0,100,0.00,,,0.00,Weather View 32 v70,2013-07-13 08:50:00,
2013-07-13 04:55:00,72.0,72.0,29.85,East,90,0.0,8.0,100,0.00,,,0.00,Weather View 32 v70,2013-07-13 08:55:00,
2013-07-13 05:00:00,72.0,72.0,29.84,ENE,68,3.0,8.0,100,0.00,,,0.00,Weather View 32 v70,2013-07-13 09:00:00,
2013-07-13 05:05:00,72.0,72.0,29.85,East,90,3.0,8.0,100,0.00,,,0.00,Weather View 32 v70,2013-07-13 09:05:00,
2013-07-13 05:10:00,72.0,72.0,29.84,ENE,68,1.0,8.0,100,0.00,,,0.00,Weather View 32 v70,2013-07-13 09:10:00,
2013-07-13 05:15:00,72.0,72.0,29.84,ENE,68,6.0,10.0,100,0.00,,,0.00,Weather View 32 v70,2013-07-13 09:15:00,
2013-07-13 05:20:00,72.0,72.0,29.85,ENE,68,1.0,10.0,100,0.00,,,0.00,Weather View 32 v70,2013-07-13 09:20:00,
2013-07-13 05:25:00,72.0,72.0,29.85,ENE,68,2.0,10.0,100,0.00,,,0.00,Weather View 32 v70,2013-07-13 09:25:00,
2013-07-13 05:30:00,72.0,72.0,29.85,ENE,68,3.0,10.0,100,0.00,,,0.00,Weather View 32 v70,2013-07-13 09:30:00,
2013-07-13 05:35:00,72.0,72.0,29.85,ENE,68,3.0,10.0,100,0.00,,,0.00,Weather View 32 v70,2013-07-13 09:35:00,
2013-07-13 05:40:00,72.0,72.0,29.85,East,90,3.0,10.0,100,0.00,,,0.00,Weather View 32 v70,2013-07-13 09:40:00,
2013-07-13 05:45:00,72.0,72.0,29.85,ENE,68,1.0,10.0,100,0.00,,,0.00,Weather View 32 v70,2013-07-13 09:45:00,
2013-07-13 05:50:00,72.0,72.0,29.85,ENE,68,2.0,10.0,100,0.00,,,0.00,Weather View 32 v70,2013-07-13 09:50:00,
2013-07-13 05:55:00,72.0,72.0,29.85,East,90,3.0,10.0,100,0.00,,,0.00,Weather View 32 v70,2013-07-13 09:55:00,
2013-07-13 06:00:00,72.0,72.0,29.85,ENE,68,5.0,10.0,100,0.00,,,0.00,Weather View 32 v70,2013-07-13 10:00:00,
2013-07-13 06:05:00,72.0,72.0,29.85,North,0,1.0,10.0,100,0.00,,,0.00,Weather View 32 v70,2013-07-13 10:05:00,
2013-07-13 06:10:00,72.0,72.0,29.85,ENE,68,5.0,10.0,100,0.00,,,0.00,Weather View 32 v70,2013-07-13 10:10:00,
2013-07-13 06:15:00,72.0,72.0,29.85,ENE,68,3.0,10.0,100,0.00,,,0.00,Weather View 32 v70,2013-07-13 10:15:00,
2013-07-13 06:20:00,72.0,72.0,29.85,ENE,68,2.0,10.0,100,0.00,,,0.00,Weather View 32 v70,2013-07-13 10:20:00,
2013-07-13 06:25:00,72.0,72.0,29.85,ENE,68,2.0,10.0,100,0.00,,,0.00,Weather View 32 v70,2013-07-13 10:25:00,
2013-07-13 06:30:00,72.0,72.0,29.85,ENE,68,3.0,10.0,100,0.00,,,0.00,Weather View 32 v70,2013-07-13 10:30:00,
2013-07-13 06:35:00,72.0,72.0,29.86,ENE,68,5.0,10.0,100,0.00,,,0.00,Weather View 32 v70,2013-07-13 10:35:00,
2013-07-13 06:40:00,72.0,72.0,29.86,ENE,68,6.0,10.0,100,0.00,,,0.00,Weather View 32 v70,2013-07-13 10:40:00,
2013-07-13 06:45:00,72.0,72.0,29.86,ENE,68,3.0,10.0,100,0.00,,,0.00,Weather View 32 v70,2013-07-13 10:45:00,
2013-07-13 06:50:00,72.0,72.0,29.86,North,0,3.0,10.0,100,0.00,,,0.00,Weather View 32 v70,2013-07-13 10:50:00,
2013-07-13 06:55:00,72.0,72.0,29.86,ENE,68,1.0,10.0,100,0.01,,,0.00,Weather View 32 v70,2013-07-13 10:55:00,
2013-07-13 07:00:00,72.0,72.0,29.86,ENE,68,0.0,10.0,100,0.00,,,0.00,Weather View 32 v70,2013-07-13 11:00:00,
2013-07-13 07:05:00,72.0,72.0,29.87,East,90,1.0,9.0,100,0.00,,,0.00,Weather View 32 v70,2013-07-13 11:05:00,
2013-07-13 07:10:00,72.0,72.0,29.87,East,90,5.0,9.0,100,0.00,,,0.00,Weather View 32 v70,2013-07-13 11:10:00,
2013-07-13 07:15:00,72.0,72.0,29.87,East,90,1.0,8.0,100,0.00,,,0.00,Weather View 32 v70,2013-07-13 11:15:00,
2013-07-13 07:20:00,72.0,72.0,29.87,ENE,68,3.0,8.0,100,0.00,,,0.00,Weather View 32 v70,2013-07-13 11:20:00,
2013-07-13 07:25:00,72.0,72.0,29.88,ENE,68,2.0,8.0,100,0.00,,,0.00,Weather View 32 v70,2013-07-13 11:25:00,
2013-07-13 07:30:00,72.0,72.0,29.88,ENE,68,4.0,8.0,100,0.00,,,0.00,Weather View 32 v70,2013-07-13 11:30:00,
2013-07-13 07:35:00,72.0,72.0,29.88,ENE,68,5.0,8.0,100,0.00,,,0.00,Weather View 32 v70,2013-07-13 11:35:00,
2013-07-13 07:40:00,72.0,72.0,29.89,ENE,68,2.0,8.0,100,0.00,,,0.00,Weather View 32 v70,2013-07-13 11:40:00,
2013-07-13 07:45:00,72.0,72.0,29.89,North,0,2.0,8.0,100,0.00,,,0.00,Weather View 32 v70,2013-07-13 11:45:00,
2013-07-13 07:50:00,72.0,72.0,29.89,ENE,68,3.0,8.0,100,0.00,,,0.00,Weather View 32 v70,2013-07-13 11:50:00,
2013-07-13 07:55:00,72.0,72.0,29.89,East,90,0.0,8.0,100,0.00,,,0.00,Weather View 32 v70,2013-07-13 11:55:00,
2013-07-13 08:00:00,72.0,72.0,29.89,ENE,68,1.0,8.0,100,0.00,,,0.00,Weather View 32 v70,2013-07-13 12:00:00,
2013-07-13 08:05:00,72.0,72.0,29.89,ENE,68,3.0,8.0,100,0.00,,,0.00,Weather View 32 v70,2013-07-13 12:05:00,
2013-07-13 08:10:00,72.0,72.0,29.89,ENE,68,5.0,8.0,100,0.00,,,0.00,Weather View 32 v70,2013-07-13 12:10:00,
2013-07-13 08:15:00,72.0,72.0,29.89,ENE,68,2.0,8.0,100,0.00,,,0.00,Weather View 32 v70,2013-07-13 12:15:00,
2013-07-13 08:20:00,72.0,72.0,29.89,ENE,68,2.0,8.0,100,0.00,,,0.00,Weather View 32 v70,2013-07-13 12:20:00,
2013-07-13 08:25:00,73.0,73.0,29.89,ENE,68,3.0,8.0,100,0.00,,,0.00,Weather View 32 v70,2013-07-13 12:25:00,
2013-07-13 08:30:00,73.0,73.0,29.89,East,90,4.0,8.0,100,0.00,,,0.00,Weather View 32 v70,2013-07-13 12:30:00,
2013-07-13 08:35:00,73.0,73.0,29.89,East,90,1.0,8.0,100,0.00,,,0.00,Weather View 32 v70,2013-07-13 12:35:00,
2013-07-13 08:40:00,73.0,73.0,29.90,ENE,68,6.0,9.0,100,0.00,,,0.00,Weather View 32 v70,2013-07-13 12:40:00,
2013-07-13 08:45:00,73.0,73.0,29.90,East,90,3.0,9.0,100,0.00,,,0.00,Weather View 32 v70,2013-07-13 12:45:00,
2013-07-13 08:50:00,73.0,73.0,29.90,ENE,68,2.0,9.0,100,0.00,,,0.00,Weather View 32 v70,2013-07-13 12:50:00,
2013-07-13 08:55:00,73.0,72.7,29.90,ENE,68,1.0,11.0,99,0.00,,,0.00,Weather View 32 v70,2013-07-13 12:55:00,
2013-07-13 09:00:00,74.0,73.7,29.90,East,90,3.0,11.0,99,0.00,,,0.00,Weather View 32 v70,2013-07-13 13:00:00,
2013-07-13 09:05:00,74.0,73.7,29.90,ENE,68,2.0,11.0,99,0.00,,,0.00,Weather View 32 v70,2013-07-13 13:05:00,
2013-07-13 09:10:00,74.0,73.4,29.90,ENE,68,2.0,11.0,98,0.00,,,0.00,Weather View 32 v70,2013-07-13 13:10:00,
2013-07-13 09:15:00,74.0,73.4,29.90,ENE,68,3.0,11.0,98,0.00,,,0.00,Weather View 32 v70,2013-07-13 13:15:00,
2013-07-13 09:20:00,74.0,73.4,29.90,ENE,68,2.0,11.0,98,0.00,,,0.00,Weather View 32 v70,2013-07-13 13:20:00,
2013-07-13 09:25:00,74.0,73.4,29.90,NNW,338,4.0,11.0,98,0.00,,,0.00,Weather View 32 v70,2013-07-13 13:25:00,
2013-07-13 09:30:00,74.0,73.1,29.91,East,90,3.0,11.0,97,0.00,,,0.00,Weather View 32 v70,2013-07-13 13:30:00,
2013-07-13 09:35:00,74.0,73.1,29.91,North,0,5.0,11.0,97,0.00,,,0.00,Weather View 32 v70,2013-07-13 13:35:00,
2013-07-13 09:40:00,74.0,73.1,29.91,ENE,68,6.0,11.0,97,0.00,,,0.00,Weather View 32 v70,2013-07-13 13:40:00,
2013-07-13 09:51:00,74.0,72.8,29.91,ENE,68,3.0,11.0,96,0.00,,,0.00,Weather View 32 v70,2013-07-13 13:51:00,
2013-07-13 09:56:00,75.0,73.8,29.91,North,0,3.0,10.0,96,0.00,,,0.00,Weather View 32 v70,2013-07-13 13:56:00,
2013-07-13 10:01:00,75.0,73.8,29.91,ENE,68,5.0,10.0,96,0.00,,,0.00,Weather View 32 v70,2013-07-13 14:01:00,
2013-07-13 10:06:00,75.0,73.8,29.91,ENE,68,2.0,10.0,96,0.00,,,0.00,Weather View 32 v70,2013-07-13 14:06:00,
2013-07-13 10:11:00,75.0,73.5,29.91,ENE,68,6.0,11.0,95,0.00,,,0.00,Weather View 32 v70,2013-07-13 14:11:00,
2013-07-13 10:16:00,75.0,73.5,29.91,ENE,68,6.0,11.0,95,0.00,,,0.00,Weather View 32 v70,2013-07-13 14:16:00,
2013-07-13 10:21:00,75.0,73.5,29.91,ENE,68,2.0,12.0,95,0.00,,,0.00,Weather View 32 v70,2013-07-13 14:21:00,
2013-07-13 10:26:00,75.0,73.5,29.92,ENE,68,10.0,12.0,95,0.00,,,0.00,Weather View 32 v70,2013-07-13 14:26:00,
2013-07-13 10:31:00,75.0,73.5,29.92,ENE,68,4.0,12.0,95,0.00,,,0.00,Weather View 32 v70,2013-07-13 14:31:00,
2013-07-13 10:36:00,75.0,73.5,29.92,ENE,68,3.0,12.0,95,0.00,,,0.00,Weather View 32 v70,2013-07-13 14:36:00,
2013-07-13 10:41:00,75.0,73.1,29.92,ENE,68,4.0,12.0,94,0.00,,,0.00,Weather View 32 v70,2013-07-13 14:41:00,
2013-07-13 10:46:00,75.0,73.5,29.92,East,90,3.0,12.0,95,0.00,,,0.00,Weather View 32 v70,2013-07-13 14:46:00,
2013-07-13 10:51:00,75.0,73.5,29.92,ENE,68,2.0,12.0,95,0.00,,,0.00,Weather View 32 v70,2013-07-13 14:51:00,
2013-07-13 10:56:00,75.0,73.5,29.92,ENE,68,4.0,12.0,95,0.00,,,0.00,Weather View 32 v70,2013-07-13 14:56:00,
2013-07-13 11:01:00,75.0,73.1,29.92,SSE,158,1.0,12.0,94,0.00,,,0.00,Weather View 32 v70,2013-07-13 15:01:00,
2013-07-13 11:06:00,75.0,73.5,29.92,ENE,68,3.0,12.0,95,0.00,,,0.00,Weather View 32 v70,2013-07-13 15:06:00,
2013-07-13 11:11:00,75.0,73.5,29.92,ENE,68,4.0,12.0,95,0.00,,,0.00,Weather View 32 v70,2013-07-13 15:11:00,
2013-07-13 11:16:00,75.0,73.1,29.92,East,90,6.0,12.0,94,0.00,,,0.00,Weather View 32 v70,2013-07-13 15:16:00,
2013-07-13 11:21:00,75.0,73.1,29.92,East,90,2.0,12.0,94,0.00,,,0.00,Weather View 32 v70,2013-07-13 15:21:00,
2013-07-13 11:26:00,75.0,72.8,29.92,East,90,1.0,12.0,93,0.00,,,0.00,Weather View 32 v70,2013-07-13 15:26:00,
2013-07-13 11:31:00,75.0,73.1,29.92,ENE,68,2.0,12.0,94,0.00,,,0.00,Weather View 32 v70,2013-07-13 15:31:00,
2013-07-13 11:36:00,75.0,73.1,29.93,ENE,68,5.0,12.0,94,0.00,,,0.00,Weather View 32 v70,2013-07-13 15:36:00,
2013-07-13 11:41:00,75.0,73.1,29.93,ENE,68,4.0,12.0,94,0.00,,,0.00,Weather View 32 v70,2013-07-13 15:41:00,
2013-07-13 11:46:00,75.0,73.1,29.93,ENE,68,4.0,12.0,94,0.00,,,0.00,Weather View 32 v70,2013-07-13 15:46:00,
2013-07-13 11:51:00,75.0,73.1,29.93,ENE,68,5.0,12.0,94,0.00,,,0.00,Weather View 32 v70,2013-07-13 15:51:00,
2013-07-13 11:56:00,75.0,73.1,29.93,ENE,68,5.0,12.0,94,0.00,,,0.00,Weather View 32 v70,2013-07-13 15:56:00,
2013-07-13 12:01:00,75.0,73.5,29.93,ENE,68,1.0,12.0,95,0.00,,,0.00,Weather View 32 v70,2013-07-13 16:01:00,
2013-07-13 12:06:00,75.0,73.5,29.93,East,90,4.0,12.0,95,0.00,,,0.00,Weather View 32 v70,2013-07-13 16:06:00,
2013-07-13 12:11:00,76.0,74.5,29.93,East,90,5.0,12.0,95,0.00,,,0.00,Weather View 32 v70,2013-07-13 16:11:00,
2013-07-13 12:16:00,76.0,74.1,29.93,ENE,68,4.0,12.0,94,0.00,,,0.00,Weather View 32 v70,2013-07-13 16:16:00,
2013-07-13 12:22:00,76.0,74.1,29.93,ENE,68,7.0,10.0,94,0.00,,,0.00,Weather View 32 v70,2013-07-13 16:22:00,
2013-07-13 12:27:00,76.0,74.1,29.93,ENE,68,2.0,10.0,94,0.00,,,0.00,Weather View 32 v70,2013-07-13 16:27:00,
2013-07-13 12:32:00,76.0,74.1,29.93,ENE,68,3.0,10.0,94,0.00,,,0.00,Weather View 32 v70,2013-07-13 16:32:00,
2013-07-13 12:37:00,77.0,75.1,29.93,East,90,3.0,10.0,94,0.00,,,0.00,Weather View 32 v70,2013-07-13 16:37:00,
2013-07-13 12:42:00,77.0,74.8,29.93,ENE,68,3.0,10.0,93,0.00,,,0.00,Weather View 32 v70,2013-07-13 16:42:00,
2013-07-13 12:47:00,77.0,75.1,29.93,ENE,68,1.0,10.0,94,0.00,,,0.00,Weather View 32 v70,2013-07-13 16:47:00,
2013-07-13 12:52:00,76.0,73.8,29.92,North,0,1.0,10.0,93,0.00,,,0.00,Weather View 32 v70,2013-07-13 16:52:00,
2013-07-13 12:57:00,77.0,74.8,29.92,East,90,1.0,10.0,93,0.00,,,0.00,Weather View 32 v70,2013-07-13 16:57:00,
2013-07-13 13:02:00,77.0,74.5,29.92,ENE,68,3.0,10.0,92,0.00,,,0.00,Weather View 32 v70,2013-07-13 17:02:00,
2013-07-13 13:07:00,77.0,74.5,29.92,East,90,1.0,10.0,92,0.00,,,0.00,Weather View 32 v70,2013-07-13 17:07:00,
2013-07-13 13:12:00,77.0,74.8,29.92,ENE,68,2.0,10.0,93,0.00,,,0.00,Weather View 32 v70,2013-07-13 17:12:00,
2013-07-13 13:17:00,77.0,74.5,29.92,East,90,4.0,10.0,92,0.00,,,0.00,Weather View 32 v70,2013-07-13 17:17:00,
2013-07-13 13:22:00,77.0,74.2,29.92,ENE,68,4.0,9.0,91,0.00,,,0.00,Weather View 32 v70,2013-07-13 17:22:00,
2013-07-13 13:27:00,77.0,74.2,29.92,ENE,68,6.0,9.0,91,0.00,,,0.00,Weather View 32 v70,2013-07-13 17:27:00,
2013-07-13 13:32:00,77.0,74.5,29.92,North,0,5.0,9.0,92,0.00,,,0.00,Weather View 32 v70,2013-07-13 17:32:00,
2013-07-13 13:37:00,77.0,74.5,29.92,ENE,68,3.0,9.0,92,0.00,,,0.00,Weather View 32 v70,2013-07-13 17:37:00,
2013-07-13 13:42:00,78.0,75.5,29.92,East,90,1.0,9.0,92,0.00,,,0.00,Weather View 32 v70,2013-07-13 17:42:00,
2013-07-13 13:47:00,78.0,75.1,29.92,ENE,68,1.0,9.0,91,0.00,,,0.00,Weather View 32 v70,2013-07-13 17:47:00,
2013-07-13 13:52:00,79.0,75.5,29.92,North,0,1.0,9.0,89,0.00,,,0.00,Weather View 32 v70,2013-07-13 17:52:00,
2013-07-13 13:57:00,79.0,75.5,29.92,West,270,3.0,9.0,89,0.00,,,0.00,Weather View 32 v70,2013-07-13 17:57:00,
2013-07-13 14:02:00,79.0,74.8,29.91,ENE,68,1.0,8.0,87,0.00,,,0.00,Weather View 32 v70,2013-07-13 18:02:00,
2013-07-13 14:07:00,79.0,74.8,29.91,ENE,68,1.0,8.0,87,0.00,,,0.00,Weather View 32 v70,2013-07-13 18:07:00,
2013-07-13 14:12:00,79.0,74.8,29.91,ENE,68,0.0,8.0,87,0.00,,,0.00,Weather View 32 v70,2013-07-13 18:12:00,
2013-07-13 14:13:00,79.0,74.8,29.91,ENE,68,1.0,8.0,87,0.00,,,0.00,Weather View 32 v70,2013-07-13 18:13:00,
2013-07-13 14:18:00,79.0,74.8,29.91,East,90,4.0,9.0,87,0.00,,,0.00,Weather View 32 v70,2013-07-13 18:18:00,
2013-07-13 14:23:00,79.0,74.8,29.91,East,90,6.0,9.0,87,0.00,,,0.00,Weather View 32 v70,2013-07-13 18:23:00,
2013-07-13 14:28:00,78.0,74.1,29.91,North,0,8.0,9.0,88,0.00,,,0.00,Weather View 32 v70,2013-07-13 18:28:00,
2013-07-13 14:33:00,79.0,74.8,29.91,ENE,68,4.0,10.0,87,0.00,,,0.00,Weather View 32 v70,2013-07-13 18:33:00,
2013-07-13 14:38:00,79.0,74.8,29.90,ENE,68,5.0,11.0,87,0.00,,,0.00,Weather View 32 v70,2013-07-13 18:38:00,
2013-07-13 14:43:00,79.0,74.8,29.90,ENE,68,5.0,11.0,87,0.00,,,0.00,Weather View 32 v70,2013-07-13 18:43:00,
2013-07-13 14:48:00,79.0,74.8,29.90,ENE,68,1.0,11.0,87,0.00,,,0.00,Weather View 32 v70,2013-07-13 18:48:00,
2013-07-13 14:53:00,79.0,74.8,29.90,ENE,68,1.0,11.0,87,0.00,,,0.00,Weather View 32 v70,2013-07-13 18:53:00,
2013-07-13 14:58:00,79.0,74.8,29.90,ENE,68,3.0,11.0,87,0.00,,,0.00,Weather View 32 v70,2013-07-13 18:58:00,
2013-07-13 15:03:00,80.0,75.8,29.90,ENE,68,1.0,11.0,87,0.00,,,0.00,Weather View 32 v70,2013-07-13 19:03:00,
2013-07-13 15:08:00,79.0,74.1,29.90,North,0,1.0,11.0,85,0.00,,,0.00,Weather View 32 v70,2013-07-13 19:08:00,
2013-07-13 15:13:00,79.0,74.1,29.90,ENE,68,2.0,11.0,85,0.00,,,0.00,Weather View 32 v70,2013-07-13 19:13:00,
2013-07-13 15:18:00,79.0,74.4,29.90,North,0,1.0,13.0,86,0.00,,,0.00,Weather View 32 v70,2013-07-13 19:18:00,
2013-07-13 15:23:00,78.0,73.8,29.90,ENE,68,5.0,13.0,87,0.00,,,0.00,Weather View 32 v70,2013-07-13 19:23:00,
2013-07-13 15:28:00,78.0,74.1,29.90,North,0,1.0,13.0,88,0.00,,,0.00,Weather View 32 v70,2013-07-13 19:28:00,
2013-07-13 15:33:00,78.0,74.1,29.90,ENE,68,3.0,13.0,88,0.00,,,0.00,Weather View 32 v70,2013-07-13 19:33:00,
2013-07-13 15:38:00,79.0,74.8,29.90,East,90,3.0,13.0,87,0.00,,,0.00,Weather View 32 v70,2013-07-13 19:38:00,
2013-07-13 15:43:00,80.0,75.8,29.90,ENE,68,1.0,13.0,87,0.00,,,0.00,Weather View 32 v70,2013-07-13 19:43:00,
2013-07-13 15:48:00,80.0,75.4,29.90,ENE,68,1.0,13.0,86,0.00,,,0.00,Weather View 32 v70,2013-07-13 19:48:00,
2013-07-13 15:53:00,80.0,75.1,29.90,ENE,68,2.0,13.0,85,0.00,,,0.00,Weather View 32 v70,2013-07-13 19:53:00,
2013-07-13 15:58:00,80.0,74.3,29.90,North,0,1.0,13.0,83,0.00,,,0.00,Weather View 32 v70,2013-07-13 19:58:00,
2013-07-13 16:03:00,80.0,74.3,29.90,ENE,68,3.0,13.0,83,0.00,,,0.00,Weather View 32 v70,2013-07-13 20:03:00,
2013-07-13 16:08:00,80.0,74.3,29.89,North,0,1.0,13.0,83,0.00,,,0.00,Weather View 32 v70,2013-07-13 20:08:00,
2013-07-13 16:13:00,80.0,74.3,29.89,North,0,0.0,13.0,83,0.00,,,0.00,Weather View 32 v70,2013-07-13 20:13:00,
2013-07-13 16:18:00,80.0,74.7,29.89,ENE,68,1.0,11.0,84,0.00,,,0.00,Weather View 32 v70,2013-07-13 20:18:00,
2013-07-13 16:23:00,80.0,74.3,29.89,ENE,68,1.0,11.0,83,0.00,,,0.00,Weather View 32 v70,2013-07-13 20:23:00,
2013-07-13 16:28:00,81.0,75.0,29.89,West,270,3.0,11.0,82,0.00,,,0.00,Weather View 32 v70,2013-07-13 20:28:00,
2013-07-13 16:33:00,81.0,75.0,29.89,East,90,3.0,11.0,82,0.00,,,0.00,Weather View 32 v70,2013-07-13 20:33:00,
2013-07-13 16:38:00,81.0,75.0,29.89,West,270,5.0,11.0,82,0.00,,,0.00,Weather View 32 v70,2013-07-13 20:38:00,
2013-07-13 16:43:00,80.0,74.0,29.89,ENE,68,3.0,11.0,82,0.00,,,0.00,Weather View 32 v70,2013-07-13 20:43:00,
2013-07-13 16:48:00,80.0,74.3,29.89,ENE,68,2.0,11.0,83,0.00,,,0.00,Weather View 32 v70,2013-07-13 20:48:00,
2013-07-13 16:53:00,80.0,74.7,29.89,North,0,1.0,11.0,84,0.00,,,0.00,Weather View 32 v70,2013-07-13 20:53:00,
2013-07-13 16:58:00,80.0,74.7,29.89,ENE,68,2.0,8.0,84,0.00,,,0.00,Weather View 32 v70,2013-07-13 20:58:00,
2013-07-13 17:03:00,80.0,74.7,29.89,ENE,68,1.0,8.0,84,0.00,,,0.00,Weather View 32 v70,2013-07-13 21:03:00,
2013-07-13 17:08:00,80.0,75.1,29.89,NNW,338,0.0,8.0,85,0.00,,,0.00,Weather View 32 v70,2013-07-13 21:08:00,
2013-07-13 17:13:00,80.0,75.1,29.89,ENE,68,0.0,8.0,85,0.00,,,0.00,Weather View 32 v70,2013-07-13 21:13:00,
2013-07-13 17:18:00,80.0,75.1,29.89,ENE,68,0.0,8.0,85,0.00,,,0.00,Weather View 32 v70,2013-07-13 21:18:00,
2013-07-13 17:23:00,81.0,75.7,29.89,ENE,68,1.0,8.0,84,0.00,,,0.00,Weather View 32 v70,2013-07-13 21:23:00,
2013-07-13 17:28:00,81.0,76.0,29.89,ENE,68,1.0,8.0,85,0.00,,,0.00,Weather View 32 v70,2013-07-13 21:28:00,
2013-07-13 17:33:00,81.0,75.7,29.88,East,90,1.0,8.0,84,0.00,,,0.00,Weather View 32 v70,2013-07-13 21:33:00,
2013-07-13 17:38:00,81.0,75.3,29.88,ENE,68,3.0,8.0,83,0.00,,,0.00,Weather View 32 v70,2013-07-13 21:38:00,
2013-07-13 17:43:00,81.0,75.3,29.88,NNW,338,3.0,8.0,83,0.00,,,0.00,Weather View 32 v70,2013-07-13 21:43:00,
2013-07-13 17:49:00,81.0,75.3,29.88,WSW,248,1.0,8.0,83,0.00,,,0.00,Weather View 32 v70,2013-07-13 21:49:00,
2013-07-13 17:54:00,81.0,75.3,29.88,North,0,4.0,8.0,83,0.00,,,0.00,Weather View 32 v70,2013-07-13 21:54:00,
2013-07-13 17:59:00,81.0,75.0,29.88,ENE,68,3.0,8.0,82,0.00,,,0.00,Weather View 32 v70,2013-07-13 21:59:00,
2013-07-13 18:04:00,81.0,75.3,29.87,North,0,1.0,8.0,83,0.00,,,0.00,Weather View 32 v70,2013-07-13 22:04:00,
2013-07-13 18:09:00,81.0,75.3,29.87,North,0,1.0,8.0,83,0.00,,,0.00,Weather View 32 v70,2013-07-13 22:09:00,
2013-07-13 18:14:00,81.0,75.7,29.87,NNW,338,3.0,8.0,84,0.00,,,0.00,Weather View 32 v70,2013-07-13 22:14:00,
2013-07-13 18:19:00,81.0,75.7,29.87,NNW,338,3.0,8.0,84,0.00,,,0.00,Weather View 32 v70,2013-07-13 22:19:00,
2013-07-13 18:24:00,81.0,75.7,29.87,East,90,2.0,8.0,84,0.00,,,0.00,Weather View 32 v70,2013-07-13 22:24:00,
2013-07-13 18:29:00,81.0,76.0,29.88,ENE,68,6.0,16.0,85,0.00,,,0.00,Weather View 32 v70,2013-07-13 22:29:00,
2013-07-13 18:34:00,79.0,75.5,29.88,East,90,5.0,16.0,89,0.01,,,0.01,Weather View 32 v70,2013-07-13 22:34:00,
2013-07-13 18:39:00,78.0,75.5,29.88,ENE,68,4.0,16.0,92,0.01,,,0.01,Weather View 32 v70,2013-07-13 22:39:00,
2013-07-13 18:44:00,78.0,76.4,29.88,ENE,68,1.0,16.0,95,0.01,,,0.01,Weather View 32 v70,2013-07-13 22:44:00,
2013-07-13 18:49:00,77.0,75.8,29.88,ENE,68,1.0,16.0,96,0.01,,,0.01,Weather View 32 v70,2013-07-13 22:49:00,
2013-07-13 18:54:00,77.0,76.4,29.88,ENE,68,0.0,16.0,98,0.01,,,0.01,Weather View 32 v70,2013-07-13 22:54:00,
2013-07-13 18:59:00,76.0,75.7,29.88,ENE,68,0.0,16.0,99,0.01,,,0.01,Weather View 32 v70,2013-07-13 22:59:00,
2013-07-13 19:04:00,76.0,75.7,29.88,ENE,68,2.0,16.0,99,0.01,,,0.01,Weather View 32 v70,2013-07-13 23:04:00,
2013-07-13 19:09:00,76.0,76.0,29.88,ENE,68,0.0,16.0,100,0.01,,,0.01,Weather View 32 v70,2013-07-13 23:09:00,
2013-07-13 19:14:00,76.0,76.0,29.88,East,90,0.0,16.0,100,0.01,,,0.01,Weather View 32 v70,2013-07-13 23:14:00,
2013-07-13 19:19:00,76.0,76.0,29.88,ENE,68,0.0,16.0,100,0.01,,,0.01,Weather View 32 v70,2013-07-13 23:19:00,
2013-07-13 19:24:00,76.0,76.0,29.88,North,0,1.0,16.0,100,0.01,,,0.01,Weather View 32 v70,2013-07-13 23:24:00,
2013-07-13 19:29:00,76.0,76.0,29.89,ENE,68,1.0,11.0,100,0.01,,,0.01,Weather View 32 v70,2013-07-13 23:29:00,
2013-07-13 19:34:00,76.0,76.0,29.89,East,90,1.0,11.0,100,0.00,,,0.01,Weather View 32 v70,2013-07-13 23:34:00,
2013-07-13 19:39:00,76.0,76.0,29.89,ENE,68,1.0,5.0,100,0.00,,,0.01,Weather View 32 v70,2013-07-13 23:39:00,
2013-07-13 19:44:00,76.0,76.0,29.89,North,0,0.0,5.0,100,0.00,,,0.01,Weather View 32 v70,2013-07-13 23:44:00,
2013-07-13 19:49:00,76.0,76.0,29.89,North,0,1.0,5.0,100,0.00,,,0.01,Weather View 32 v70,2013-07-13 23:49:00,
2013-07-13 19:54:00,76.0,76.0,29.89,ENE,68,4.0,6.0,100,0.00,,,0.01,Weather View 32 v70,2013-07-13 23:54:00,
2013-07-13 19:59:00,76.0,76.0,29.89,East,90,1.0,6.0,100,0.00,,,0.01,Weather View 32 v70,2013-07-13 23:59:00,
2013-07-13 20:04:00,76.0,76.0,29.89,North,0,2.0,6.0,100,0.00,,,0.01,Weather View 32 v70,2013-07-14 00:04:00,
2013-07-13 20:09:00,76.0,76.0,29.90,ENE,68,0.0,6.0,100,0.00,,,0.01,Weather View 32 v70,2013-07-14 00:09:00,
2013-07-13 20:14:00,76.0,76.0,29.90,East,90,0.0,6.0,100,0.00,,,0.01,Weather View 32 v70,2013-07-14 00:14:00,
2013-07-13 20:19:00,76.0,76.0,29.90,East,90,0.0,6.0,100,0.00,,,0.01,Weather View 32 v70,2013-07-14 00:19:00,
2013-07-13 20:25:00,76.0,76.0,29.90,ENE,68,0.0,6.0,100,0.00,,,0.01,Weather View 32 v70,2013-07-14 00:25:00,
2013-07-13 20:30:00,76.0,76.0,29.90,ENE,68,0.0,6.0,100,0.00,,,0.01,Weather View 32 v70,2013-07-14 00:30:00,
2013-07-13 20:35:00,76.0,76.0,29.90,ENE,68,0.0,6.0,100,0.00,,,0.01,Weather View 32 v70,2013-07-14 00:35:00,
2013-07-13 20:40:00,76.0,76.0,29.90,North,0,0.0,6.0,100,0.00,,,0.01,Weather View 32 v70,2013-07-14 00:40:00,
2013-07-13 20:45:00,76.0,76.0,29.90,ENE,68,0.0,6.0,100,0.00,,,0.01,Weather View 32 v70,2013-07-14 00:45:00,
2013-07-13 20:50:00,76.0,76.0,29.90,ENE,68,1.0,6.0,100,0.00,,,0.01,Weather View 32 v70,2013-07-14 00:50:00,
2013-07-13 20:55:00,76.0,76.0,29.90,ENE,68,0.0,6.0,100,0.00,,,0.01,Weather View 32 v70,2013-07-14 00:55:00,
2013-07-13 21:00:00,76.0,76.0,29.90,East,90,0.0,6.0,100,0.00,,,0.01,Weather View 32 v70,2013-07-14 01:00:00,
2013-07-13 21:05:00,76.0,76.0,29.90,North,0,1.0,6.0,100,0.00,,,0.01,Weather View 32 v70,2013-07-14 01:05:00,
2013-07-13 21:10:00,76.0,76.0,29.90,ENE,68,0.0,6.0,100,0.00,,,0.01,Weather View 32 v70,2013-07-14 01:10:00,
2013-07-13 21:15:00,76.0,76.0,29.90,East,90,0.0,4.0,100,0.00,,,0.01,Weather View 32 v70,2013-07-14 01:15:00,
2013-07-13 21:20:00,76.0,76.0,29.90,ENE,68,0.0,4.0,100,0.00,,,0.01,Weather View 32 v70,2013-07-14 01:20:00,
2013-07-13 21:25:00,76.0,76.0,29.91,East,90,0.0,4.0,100,0.00,,,0.01,Weather View 32 v70,2013-07-14 01:25:00,
2013-07-13 21:30:00,76.0,76.0,29.90,ENE,68,0.0,4.0,100,0.00,,,0.01,Weather View 32 v70,2013-07-14 01:30:00,
2013-07-13 21:35:00,76.0,76.0,29.90,East,90,0.0,4.0,100,0.00,,,0.01,Weather View 32 v70,2013-07-14 01:35:00,
2013-07-13 21:40:00,76.0,76.0,29.90,ENE,68,0.0,4.0,100,0.01,,,0.02,Weather View 32 v70,2013-07-14 01:40:00,
2013-07-13 21:45:00,76.0,76.0,29.90,ENE,68,0.0,4.0,100,0.01,,,0.02,Weather View 32 v70,2013-07-14 01:45:00,
2013-07-13 21:50:00,76.0,76.0,29.90,East,90,0.0,3.0,100,0.01,,,0.02,Weather View 32 v70,2013-07-14 01:50:00,
2013-07-13 21:55:00,76.0,76.0,29.91,East,90,0.0,3.0,100,0.01,,,0.02,Weather View 32 v70,2013-07-14 01:55:00,
2013-07-13 22:00:00,76.0,76.0,29.91,ENE,68,0.0,3.0,100,0.01,,,0.02,Weather View 32 v70,2013-07-14 02:00:00,
2013-07-13 22:05:00,76.0,76.0,29.91,ENE,68,1.0,3.0,100,0.01,,,0.02,Weather View 32 v70,2013-07-14 02:05:00,
2013-07-13 22:10:00,76.0,76.0,29.91,ENE,68,0.0,3.0,100,0.01,,,0.02,Weather View 32 v70,2013-07-14 02:10:00,
2013-07-13 22:15:00,76.0,76.0,29.90,ENE,68,1.0,3.0,100,0.01,,,0.02,Weather View 32 v70,2013-07-14 02:15:00,
2013-07-13 22:20:00,76.0,76.0,29.91,East,90,1.0,5.0,100,0.01,,,0.02,Weather View 32 v70,2013-07-14 02:20:00,
2013-07-13 22:25:00,76.0,76.0,29.91,East,90,2.0,5.0,100,0.01,,,0.02,Weather View 32 v70,2013-07-14 02:25:00,
2013-07-13 22:30:00,76.0,76.0,29.91,East,90,2.0,6.0,100,0.01,,,0.02,Weather View 32 v70,2013-07-14 02:30:00,
2013-07-13 22:35:00,76.0,76.0,29.91,East,90,3.0,6.0,100,0.02,,,0.03,Weather View 32 v70,2013-07-14 02:35:00,
2013-07-13 22:40:00,76.0,76.0,29.90,ENE,68,3.0,6.0,100,0.01,,,0.03,Weather View 32 v70,2013-07-14 02:40:00,
2013-07-13 22:45:00,76.0,76.0,29.90,ENE,68,0.0,8.0,100,0.01,,,0.03,Weather View 32 v70,2013-07-14 02:45:00,
2013-07-13 22:50:00,76.0,76.0,29.90,East,90,3.0,8.0,100,0.01,,,0.03,Weather View 32 v70,2013-07-14 02:50:00,
2013-07-13 22:56:00,76.0,76.0,29.90,East,90,0.0,8.0,100,0.01,,,0.03,Weather View 32 v70,2013-07-14 02:56:00,
2013-07-13 23:01:00,76.0,76.0,29.90,ENE,68,6.0,9.0,100,0.02,,,0.04,Weather View 32 v70,2013-07-14 03:01:00,
2013-07-13 23:06:00,75.0,75.0,29.90,ENE,68,3.0,9.0,100,0.02,,,0.04,Weather View 32 v70,2013-07-14 03:06:00,
2013-07-13 23:11:00,75.0,75.0,29.90,ENE,68,6.0,10.0,100,0.02,,,0.04,Weather View 32 v70,2013-07-14 03:11:00,
2013-07-13 23:16:00,75.0,75.0,29.90,ENE,68,0.0,10.0,100,0.03,,,0.05,Weather View 32 v70,2013-07-14 03:16:00,
2013-07-13 23:21:00,75.0,75.0,29.90,East,90,0.0,10.0,100,0.03,,,0.06,Weather View 32 v70,2013-07-14 03:21:00,
2013-07-13 23:26:00,75.0,75.0,29.90,ENE,68,1.0,10.0,100,0.04,,,0.06,Weather View 32 v70,2013-07-14 03:26:00,
2013-07-13 23:31:00,75.0,75.0,29.90,ENE,68,1.0,10.0,100,0.04,,,0.06,Weather View 32 v70,2013-07-14 03:31:00,
2013-07-13 23:36:00,75.0,75.0,29.90,North,0,3.0,10.0,100,0.03,,,0.06,Weather View 32 v70,2013-07-14 03:36:00,
2013-07-13 23:41:00,75.0,75.0,29.91,ENE,68,1.0,10.0,100,0.03,,,0.06,Weather View 32 v70,2013-07-14 03:41:00,
2013-07-13 23:46:00,75.0,75.0,29.91,ENE,68,2.0,10.0,100,0.03,,,0.06,Weather View 32 v70,2013-07-14 03:46:00,
2013-07-13 23:51:00,75.0,75.0,29.91,ENE,68,1.0,10.0,100,0.03,,,0.06,Weather View 32 v70,2013-07-14 03:51:00,
2013-07-13 23:56:00,75.0,75.0,29.91,NNW,338,2.0,10.0,100,0.03,,,0.06,Weather View 32 v70,2013-07-14 03:56:00,